Chicago DuPage, IL

5:02 AM CDT on September 25, 2017 (GMT -0500)
Du Page

Weather History for KDPA - March, 2013

Change the Weather History Date:

Thursday, March 21, 2013

  Actual Average Record
Temperature  
Mean Temperature 23 °F 40 °F  
Max Temperature 33 °F 50 °F 83 °F (2012)
Min Temperature 12 °F 30 °F 12 °F (2013)
Degree Days  
Heating Degree Days 42 25  
Month to date heating degree days 768 605  
Since 1 July heating degree days 5496 5360  
Cooling Degree Days 0 0  
Month to date cooling degree days 0 0  
Year to date cooling degree days 0 0  
Moisture  
Dew Point 10 °F    
Average Humidity 62    
Maximum Humidity 74    
Minimum Humidity 45    
Precipitation  
Precipitation 0.00 in 0.09 in 0.80 in (2007)
Month to date precipitation 0.97 1.52  
Year to date precipitation 6.37 4.25  
Sea Level Pressure  
Sea Level Pressure 30.05 in    
Wind  
Wind Speed 8 mph (NW)    
Max Wind Speed 14 mph    
Max Gust Speed 21 mph    
Visibility 10 miles    
Events      
T = Trace of Precipitation, MM = Missing Value Source: NWS Daily Summary

Daily Weather History Graph

Daily Weather History Graph

Search for Another Location

Airport or City:

Trip Planner

Search our weather history database for the weather conditions in past years. The results will help you decide how hot, cold, wet, or windy it might be!

Date:

Astronomy

Mar. 21, 2013 Rise Set
Actual Time 6:54 AM CDT 7:06 PM CDT
Civil Twilight 6:26 AM CDT 7:34 PM CDT
Nautical Twilight 5:53 AM CDT 8:07 PM CDT
Astronomical Twilight 5:20 AM CDT 8:40 PM CDT
Moon 1:31 PM CDT (3/21) 3:20 AM CDT (3/21)
Length of Visible Light 13h 08m
Length of Day
12h 12m
Waxing Gibbous, 69% of the Moon is Illuminated
Mar 21
Waxing Gibbous
Mar 27
Full
Apr 2
Last Quarter
Apr 10
New
Apr 18
First Quarter

Hourly Weather History & Observations

Time (CDT) Temp. Windchill Dew Point Humidity Pressure Visibility Wind Dir Wind Speed Gust Speed Precip Events Conditions
12:52 AM 15.1 °F 3.3 °F 7.0 °F 70% 30.07 in 10.0 mi NW 9.2 mph - N/A   Clear
1:52 AM 15.1 °F 3.3 °F 6.1 °F 68% 30.07 in 10.0 mi NW 9.2 mph - N/A   Clear
2:52 AM 12.9 °F 2.6 °F 5.0 °F 71% 30.06 in 10.0 mi NW 6.9 mph - N/A   Clear
3:52 AM 12.9 °F 1.6 °F 5.0 °F 71% 30.05 in 10.0 mi NW 8.1 mph - N/A   Clear
4:52 AM 12.9 °F 1.6 °F 5.0 °F 71% 30.05 in 10.0 mi NW 8.1 mph - N/A   Clear
5:52 AM 12.0 °F 1.5 °F 3.9 °F 70% 30.06 in 10.0 mi WNW 6.9 mph - N/A   Clear
6:52 AM 12.0 °F -0.4 °F 3.9 °F 70% 30.06 in 10.0 mi NW 9.2 mph - N/A   Clear
7:52 AM 14.0 °F 2.0 °F 5.0 °F 67% 30.06 in 10.0 mi NW 9.2 mph - N/A   Clear
8:52 AM 17.1 °F 3.6 °F 7.0 °F 65% 30.08 in 10.0 mi WNW 12.7 mph - N/A   Clear
9:52 AM 21.0 °F 9.9 °F 9.0 °F 60% 30.07 in 10.0 mi NNW 10.4 mph - N/A   Clear
10:52 AM 25.0 °F 13.6 °F 10.0 °F 53% 30.07 in 10.0 mi WNW 12.7 mph - N/A   Clear
12:52 PM 28.9 °F 19.2 °F 12.0 °F 49% 30.06 in 10.0 mi West 11.5 mph - N/A   Clear
1:52 PM 30.9 °F 21.2 °F 12.9 °F 47% 30.05 in 10.0 mi WNW 12.7 mph 16.1 mph N/A   Clear
2:52 PM 33.1 °F 23.9 °F 14.0 °F 46% 30.05 in 10.0 mi NNW 12.7 mph - N/A   Clear
3:52 PM 32.0 °F 24.2 °F 12.9 °F 45% 30.04 in 10.0 mi NW 9.2 mph - N/A   Clear
4:52 PM 32.0 °F 24.8 °F 14.0 °F 48% 30.03 in 10.0 mi NNW 8.1 mph - N/A   Clear
5:52 PM 30.9 °F 24.3 °F 14.0 °F 50% 30.02 in 10.0 mi NNW 6.9 mph - N/A   Clear
6:52 PM 28.0 °F 20.8 °F 15.1 °F 58% 30.03 in 10.0 mi WNW 6.9 mph - N/A   Clear
7:52 PM 26.1 °F 18.4 °F 15.1 °F 63% 30.04 in 10.0 mi WNW 6.9 mph - N/A   Clear
8:52 PM 24.1 °F 17.0 °F 14.0 °F 65% 30.06 in 10.0 mi WNW 5.8 mph - N/A   Clear
9:52 PM 23.0 °F 15.8 °F 15.1 °F 72% 30.06 in 10.0 mi WNW 5.8 mph - N/A   Clear
10:52 PM 19.9 °F 14.9 °F 12.9 °F 74% 30.06 in 10.0 mi NNW 3.5 mph - N/A   Clear
11:52 PM 21.9 °F 17.2 °F 14.0 °F 72% 30.06 in 10.0 mi West 3.5 mph - N/A   Clear